Regional Weather Roundup
Issued by NWS

Home | Current Version | Previous Version | Graphics & Text | Print | Product List | Glossary On
Versions: 1 2 3 4 5 6 7 8 9 10 11 12 13 14 15 16 17 18 19 20 21 22 23 24 25 26 27 28 29 30 31 32 33 34 35 36 37 38 39 40 41 42 43 44 45 46 47 48 49 50
000
ASUS43 KFSD 210610
RWRSD

WEATHER ROUNDUP FOR SOUTH DAKOTA
NATIONAL WEATHER SERVICE SIOUX FALLS SD
100 AM CDT TUE OCT 21 2014

NOTE: "FAIR" INDICATES FEW OR NO CLOUDS BELOW 12,000 FEET WITH NO
SIGNIFICANT WEATHER AND/OR OBSTRUCTIONS TO VISIBILITY.


SDZ001>005-009-010-012>017-210700-
NORTHWEST AND NORTH CENTRAL SOUTH DAKOTA

CITY           SKY/WX    TMP DP  RH WIND       PRES   REMARKS
BUFFALO          N/A     56  41  57 SE5       29.78F
FAITH            N/A     53  40  61 SE16      29.85F
MOBRIDGE       CLEAR     58  35  42 SE16      29.89F
$$

SDZ012>016-024>037-041>051-057-063-072>074-210700-
SOUTHWEST AND SOUTH CENTRAL SOUTH DAKOTA

CITY           SKY/WX    TMP DP  RH WIND       PRES   REMARKS
RAPID CTY ARPT CLEAR     53  42  66 SE7       29.87F
PIERRE         CLEAR     57  38  48 SE14      29.91F
CUSTER         CLEAR     55  34  45 SW5       30.00F
ELLSWORTH AFB  CLEAR     58  44  60 S8        29.86F
PHILIP         CLEAR     61  40  45 S8        29.87F
PINE RIDGE     CLEAR     62  39  42 S16       29.94S
SPEARFISH      FAIR      55  37  50 SE7       29.88F
WINNER         FAIR      60  41  49 S12       29.95S
$$

SDZ004>011-016>023-039-040-210700-
NORTHEAST SOUTH DAKOTA

CITY           SKY/WX    TMP DP  RH WIND       PRES   REMARKS
ABERDEEN       CLEAR     44  37  76 E8        30.00F
WATERTOWN      CLEAR     45  37  73 SE6       30.04F
SISSETON         N/A     37  35  92 SW3       30.04S
$$

SDZ017-020-022-023-036>040-048>070-210700-
SOUTHEAST SOUTH DAKOTA

CITY           SKY/WX    TMP DP  RH WIND       PRES   REMARKS
SIOUX FALLS    CLEAR     40  35  83 CALM      30.05F
HURON          CLEAR     46  35  65 SE7       30.01S
CHAMBERLAIN    CLEAR     51  35  55 SE9       29.97F
MITCHELL       CLEAR     47  37  68 S8        30.03R
YANKTON        CLEAR     45  37  76 CALM      30.05R
$$

ABBREVIATIONS USED IN REMARKS
   TC - TEMPERATURE IN CELSIUS
  WCI - WIND CHILL INDEX
   HX - HEAT INDEX
  VSB - VISIBILITY



USA.gov is the U.S. government's official web portal to all federal, state and local government web resources and services.